FW5987 Weather Reports


time (UTC)temp
C
wind
direction
speed
KPH
gust
KPH
rain 1hr
cm
rain 24hr
cm
rain mn
cm
humidity
%
barometer
mb
20260508034524 10 230 1.6 3.2 0.00 0.08 0.08 89 1013.3
20260508033043 10 230 1.6 3.2 0.00 0.08 0.08 88 1013.2
20260508031516 11 230 0.0 3.2 0.00 0.08 0.08 88 1013.1
20260508030043 11 230 0.0 4.8 0.00 0.08 0.08 87 1012.8
20260508024502 11 230 0.0 3.2 0.00 0.08 0.08 86 1012.6
20260508023035 11 230 0.0 4.8 0.00 0.08 0.08 86 1012.8
20260508021546 11 230 0.0 4.8 0.00 0.08 0.08 85 1012.6
20260508020023 12 230 1.6 4.8 0.00 0.08 0.08 85 1012.5
20260508014540 12 230 0.0 8.0 0.00 0.08 0.08 85 1012.4
20260508013059 12 230 3.2 9.7 0.00 0.08 0.08 84 1012.3
20260508011517 12 232 4.8 12.9 0.00 0.08 0.08 83 1012.1
20260508010056 12 234 4.8 9.7 0.00 0.08 0.08 83 1011.8
20260508004521 12 234 3.2 12.9 0.00 0.08 0.08 82 1011.8
20260508003043 12 194 6.4 11.3 0.00 0.08 0.08 81 1011.7
20260508001501 12 193 3.2 9.7 0.00 0.08 0.08 81 1011.5
20260508000033 12 193 3.2 9.7 0.00 0.08 0.08 80 1011.3
20260507234549 12 193 3.2 12.9 0.00 0.08 0.08 80 1011.2
20260507233005 12 193 3.2 9.7 0.00 0.08 0.08 80 1011.0
20260507231540 12 196 3.2 12.9 0.00 0.08 0.08 80 1010.7
20260507230058 12 205 4.8 16.1 0.00 0.08 0.08 79 1010.8
20260507224516 12 207 4.8 11.3 0.00 0.08 0.08 78 1010.6
20260507223035 13 234 3.2 12.9 0.00 0.08 0.08 78 1010.6
20260507221553 13 199 6.4 14.5 0.00 0.08 0.08 76 1010.4
20260507220016 13 213 6.4 11.3 0.00 0.08 0.08 73 1010.3
20260507214553 14 180 6.4 12.9 0.00 0.08 0.08 71 1010.3
20260507213109 13 187 6.4 14.5 0.00 0.08 0.08 69 1010.2
20260507211522 14 178 4.8 11.3 0.00 0.08 0.08 67 1010.3
20260507210051 15 174 6.4 14.5 0.00 0.08 0.08 65 1010.2
20260507204511 15 180 4.8 14.5 0.00 0.08 0.08 65 1010.1
20260507203045 14 173 4.8 16.1 0.00 0.08 0.08 66 1010.4
20260507201503 14 175 8.0 17.7 0.00 0.08 0.08 66 1010.5
20260507200037 15 192 3.2 14.5 0.00 0.08 0.08 64 1010.6
20260507194553 14 192 6.4 12.9 0.00 0.08 0.08 65 1010.8
20260507193033 15 198 6.4 16.1 0.00 0.08 0.08 64 1011.1
20260507191600 14 177 4.8 12.9 0.00 0.08 0.08 65 1010.9
20260507190035 14 174 4.8 12.9 0.00 0.08 0.08 67 1011.1
20260507184553 14 184 4.8 9.7 0.00 0.08 0.08 68 1011.4
20260507183016 13 62 1.6 8.0 0.00 0.08 0.08 68 1011.3
20260507181543 13 61 1.6 8.0 0.00 0.08 0.08 73 1011.4
20260507180010 13 60 1.6 6.4 0.00 0.08 0.08 74 1011.4
20260507174541 13 59 1.6 6.4 0.00 0.08 0.08 76 1011.5
20260507173003 13 71 3.2 6.4 0.00 0.08 0.08 72 1011.7
20260507171542 13 71 4.8 9.7 0.00 0.08 0.08 72 1011.8
20260507170056 12 69 1.6 8.0 0.00 0.08 0.08 74 1012.1
20260507164507 12 67 3.2 9.7 0.00 0.08 0.08 74 1012.3
20260507163039 12 355 3.2 12.9 0.00 0.08 0.08 80 1012.4
20260507161557 12 348 0.0 8.0 0.00 0.08 0.08 86 1012.6
20260507160021 12 348 3.2 8.0 0.00 0.08 0.08 84 1012.7
20260507154545 12 348 0.0 8.0 0.03 0.08 0.08 83 1013.1
20260507153002 12 74 1.6 12.9 0.03 0.08 0.08 81 1013.2
20260507151513 12 73 4.8 12.9 0.03 0.08 0.08 85 1012.7
20260507150037 12 76 3.2 9.7 0.03 0.08 0.08 87 1012.6
20260507144605 11 76 3.2 14.5 0.00 0.08 0.05 85 1012.8
20260507143034 12 78 6.4 20.9 0.00 0.08 0.05 83 1012.9
20260507141554 12 68 3.2 12.9 0.00 0.08 0.05 85 1013.1
20260507140002 12 69 4.8 9.7 0.00 0.13 0.05 83 1013.2
20260507134541 12 71 4.8 12.9 0.00 0.13 0.05 82 1013.3
20260507133058 12 75 6.4 14.5 0.00 0.13 0.05 81 1013.3
20260507131528 12 78 1.6 14.5 0.00 0.13 0.05 80 1013.2
20260507130109 12 77 6.4 14.5 0.00 0.13 0.05 80 1012.9
20260507124512 13 78 3.2 9.7 0.00 0.13 0.05 81 1012.9
20260507123038 12 76 3.2 9.7 0.00 0.13 0.05 81 1012.8
20260507121550 12 78 4.8 12.9 0.00 0.13 0.05 82 1012.8
20260507120012 12 77 4.8 9.7 0.00 0.13 0.05 82 1012.6
20260507114547 12 77 1.6 9.7 0.00 0.13 0.05 84 1012.8
20260507113010 12 78 4.8 12.9 0.00 0.13 0.05 84 1012.3
20260507111547 12 78 3.2 8.0 0.00 0.13 0.05 85 1012.4
20260507110005 12 78 4.8 9.7 0.00 0.13 0.05 86 1012.0
20260507104532 12 78 3.2 12.9 0.00 0.13 0.05 86 1011.7
20260507103057 12 79 4.8 11.3 0.00 0.13 0.05 86 1012.0
20260507101512 12 80 3.2 9.7 0.00 0.13 0.05 87 1011.8
20260507100045 12 80 1.6 14.5 0.00 0.13 0.05 87 1011.8
20260507094600 12 78 4.8 12.9 0.00 0.13 0.05 87 1011.5
20260507093036 12 78 3.2 17.7 0.00 0.13 0.05 88 1011.3
20260507091544 12 76 6.4 14.5 0.00 0.13 0.05 89 1011.5
20260507090019 12 81 3.2 17.7 0.00 0.13 0.05 90 1011.3
20260507084550 12 69 3.2 14.5 0.00 0.13 0.05 91 1011.3
20260507083002 13 78 4.8 19.3 0.00 0.13 0.05 91 1011.2
20260507081530 13 70 4.8 14.5 0.00 0.13 0.05 92 1010.9
20260507080050 13 68 4.8 9.7 0.00 0.13 0.05 92 1011.2
20260507074605 13 67 3.2 12.9 0.00 0.13 0.05 92 1011.1
20260507073024 13 76 4.8 14.5 0.00 0.13 0.05 92 1010.5
20260507071600 13 5 6.4 16.1 0.00 0.13 0.05 93 1010.2
20260507070011 14 60 6.4 20.9 0.00 0.13 0.05 92 1010.1
20260507064544 15 75 4.8 14.5 0.00 0.13 0.05 93 1009.8
20260507063055 16 76 4.8 16.1 0.00 0.13 0.05 93 1010.3
20260507061516 17 129 4.8 12.9 0.00 0.13 0.05 94 1010.3
20260507060047 17 131 1.6 6.4 0.00 0.13 0.05 93 1010.0
20260507054506 17 132 1.6 3.2 0.03 0.13 0.05 93 1010.1
20260507053026 17 132 1.6 6.4 0.05 0.13 0.05 93 1009.7
20260507051550 17 132 1.6 4.8 0.05 0.13 0.05 92 1008.9
20260507050012 18 132 1.6 11.3 0.05 0.13 0.05 92 1009.0
20260507044543 18 220 0.0 3.2 0.03 0.10 0.03 91 1009.7
20260507043105 18 220 0.0 1.6 0.00 0.08 0.00 90 1010.0
20260507041525 18 220 0.0 3.2 0.00 0.08 0.00 89 1009.8
20260507040048 18 220 0.0 4.8 0.00 0.08 0.00 87 1009.5